sat.trackr.live / text

‹ back to catalog

TURKSAT 5A

NORAD 47306 · 2021-001A

PAYLOAD ACTIVE UNKNOWN

§ Identity

Operator
Country
TURK
Launch date
2021-01-08
Launch site
AFETR
Launch vehicle
Mass (kg)
RCS (m²)

Purposes: comms

External: N2YO · Heavens-Above · Gunter

§ Orbital elements

Epoch: 2026-09-15T20:44:31.989696Z

Period
1,436.09 min
Inclination
0.0167°
Eccentricity
0.0000170
Mean motion
1.00272237 rev/d
Perigee alt
35,785.8 km
Apogee alt
35,787.2 km
Semi-major
42,164.6 km
B*
0.0000e+0
RAAN
106.6532°
Arg perigee
325.9164°
Mean anomaly
264.3166°
Rev number
2,087

§ Raw data

TURKSAT 5A1 47306U 21001A   26258.86425914  .00000149  00000+0  00000+0 0  99982 47306   0.0167 106.6532 0000170 325.9164 264.3166  1.00272237 20876

JSON: /api/v1/satellites/47306 · /tle

For live sub-satellite position, see the globe view (requires WebGL).

§ Visibility from observer

Set your observer location to see the next 7 days of passes ≥ 10°. The values pass through the URL so the page stays shareable.

No JS? Fill the form by hand. The geolocation button needs JavaScript.